Location: Beaver Brook Station
(42.3793°N, 71.2203°W)
Time: 02:09:38
(UTC+00:00)

NOSS 3-4 (C) - Pass Details

Date: 29 October 2020
Orbit: 884 x 1328 km, 63.4° (Epoch: 28 November)

Event Time Altitude Azimuth Distance (km) Brightness Sun altitude
Rises 23:16:33 0° 327° (NNW) 3,791 7.0 -18.1°
Reaches altitude 10° 23:19:17 10° 335° (NNW) 2,900 6.3 -18.6°
Maximum altitude 23:25:45 40° 44° (NE) 1,635 4.3 -19.8°
Enters shadow 23:28:07 32° 82° (E) 1,898 4.4 -20.2°
